When you browse on this site, cookies collect data to enhance your experience and personalize the content and advertising you see.
Visit our Privacy Policy to learn more. By continuing to use the site, you agree to this use of cookies and data.
  • In Österreich
  • Länderverzeichnis
  • Für 7 Tage
  • Wassertemperatur
  • Satellitenkarten
  • Wetterkarte
  • News
  • Widgets
  • user-avatar
    Anmelden

    Stündliche Wetter Idshewan

    Heute, 22 April, Montag

    Zeit Temperatur Niederschläge Wind Luftdruck Luftfeuchtigkeit
    00:00 +3°C° 0.1 mm 2 m/S 692 mmHg 95%
    01:00 +3°C° 0.2 mm 2 m/S 692 mmHg 95%
    02:00 +3°C° 0.2 mm 2 m/S 691 mmHg 95%
    03:00 +2°C° 0 mm 3 m/S 691 mmHg 98%
    04:00 +2°C° 0.3 mm 3 m/S 691 mmHg 97%
    05:00 +3°C° 0.3 mm 2 m/S 691 mmHg 96%
    06:00 +3°C° 0.3 mm 2 m/S 691 mmHg 95%
    07:00 +3°C° 0.2 mm 2 m/S 690 mmHg 93%
    08:00 +3°C° 0.2 mm 2 m/S 690 mmHg 91%
    09:00 +3°C° 0.2 mm 3 m/S 690 mmHg 89%
    10:00 +4°C° 0.2 mm 3 m/S 690 mmHg 85%
    11:00 +4°C° 0.2 mm 3 m/S 690 mmHg 82%
    12:00 +5°C° 0.2 mm 3 m/S 690 mmHg 79%
    13:00 +5°C° 0.3 mm 3 m/S 690 mmHg 77%
    14:00 +7°C° 0.3 mm 3 m/S 690 mmHg 76%
    15:00 +7°C° 0.3 mm 2 m/S 690 mmHg 75%
    16:00 +7°C° 0.1 mm 2 m/S 690 mmHg 77%
    17:00 +6°C° 0.1 mm 2 m/S 691 mmHg 79%
    18:00 +6°C° 0.1 mm 2 m/S 691 mmHg 80%
    19:00 +6°C° 0.1 mm 1 m/S 691 mmHg 83%
    20:00 +5°C° 0.1 mm 1 m/S 692 mmHg 85%
    21:00 +4°C° 0.1 mm 1 m/S 693 mmHg 87%
    22:00 +4°C° 0.1 mm 1 m/S 693 mmHg 88%
    23:00 +4°C° 0.1 mm 1 m/S 694 mmHg 88%

    Morgen, 23 April, Dienstag

    Zeit Temperatur Niederschläge Wind Luftdruck Luftfeuchtigkeit
    00:00 +4°C° 0.1 mm 1 m/S 694 mmHg 89%
    01:00 +4°C° 0.1 mm 1 m/S 694 mmHg 90%
    02:00 +4°C° 0.1 mm 1 m/S 694 mmHg 90%
    03:00 +4°C° 0.1 mm 1 m/S 695 mmHg 91%
    04:00 +4°C° 0 mm 1 m/S 695 mmHg 89%
    05:00 +4°C° 0 mm 1 m/S 695 mmHg 87%
    06:00 +5°C° 0 mm 1 m/S 695 mmHg 85%
    07:00 +6°C° 0 mm 1 m/S 696 mmHg 80%
    08:00 +8°C° 0 mm 1 m/S 696 mmHg 75%
    09:00 +9°C° 0 mm 1 m/S 696 mmHg 70%
    10:00 +9°C° 0.1 mm 2 m/S 696 mmHg 69%
    11:00 +10°C° 0.1 mm 2 m/S 696 mmHg 67%
    12:00 +10°C° 0.1 mm 2 m/S 696 mmHg 66%
    13:00 +12°C° 0.2 mm 2 m/S 696 mmHg 66%
    14:00 +12°C° 0.2 mm 2 m/S 696 mmHg 66%
    15:00 +12°C° 0.2 mm 2 m/S 696 mmHg 66%
    16:00 +10°C° 0.1 mm 2 m/S 696 mmHg 69%
    17:00 +10°C° 0.1 mm 2 m/S 696 mmHg 72%
    18:00 +10°C° 0.1 mm 1 m/S 697 mmHg 76%
    19:00 +9°C° 0 mm 1 m/S 697 mmHg 77%
    20:00 +8°C° 0 mm 1 m/S 698 mmHg 79%
    21:00 +7°C° 0 mm 1 m/S 698 mmHg 80%
    22:00 +7°C° 0.1 mm 1 m/S 699 mmHg 83%
    23:00 +7°C° 0.1 mm 1 m/S 699 mmHg 85%

    übermorgen, 24 April, Mittwoch

    Zeit Temperatur Niederschläge Wind Luftdruck Luftfeuchtigkeit
    00:00 +7°C° 0.1 mm 1 m/S 700 mmHg 88%
    01:00 +7°C° 0 mm 1 m/S 700 mmHg 90%
    02:00 +6°C° 0 mm 1 m/S 700 mmHg 92%
    03:00 +5°C° 0 mm 0 m/S 700 mmHg 95%
    04:00 +6°C° 0 mm 1 m/S 700 mmHg 94%
    05:00 +6°C° 0 mm 1 m/S 700 mmHg 93%
    06:00 +6°C° 0 mm 1 m/S 700 mmHg 93%
    07:00 +7°C° 0 mm 1 m/S 700 mmHg 86%
    08:00 +9°C° 0 mm 1 m/S 700 mmHg 80%
    09:00 +10°C° 0 mm 1 m/S 700 mmHg 73%
    10:00 +11°C° 0 mm 1 m/S 699 mmHg 71%
    11:00 +12°C° 0 mm 2 m/S 699 mmHg 68%
    12:00 +13°C° 0 mm 2 m/S 698 mmHg 65%
    13:00 +13°C° 0.2 mm 2 m/S 698 mmHg 65%
    14:00 +13°C° 0.2 mm 2 m/S 698 mmHg 65%
    15:00 +14°C° 0.2 mm 2 m/S 697 mmHg 64%
    16:00 +13°C° 0.3 mm 2 m/S 697 mmHg 68%
    17:00 +12°C° 0.3 mm 1 m/S 697 mmHg 72%
    18:00 +12°C° 0.3 mm 1 m/S 697 mmHg 75%
    19:00 +11°C° 0.1 mm 1 m/S 697 mmHg 77%
    20:00 +9°C° 0.1 mm 0 m/S 698 mmHg 79%
    21:00 +8°C° 0.1 mm 0 m/S 698 mmHg 80%
    22:00 +7°C° 0.1 mm 0 m/S 698 mmHg 82%
    23:00 +7°C° 0.1 mm 0 m/S 698 mmHg 83%

    25 April, Donnerstag

    Zeit Temperatur Niederschläge Wind Luftdruck Luftfeuchtigkeit
    00:00 +8°C° 0.1 mm 1 m/S 698 mmHg 85%
    01:00 +6°C° 0 mm 0 m/S 698 mmHg 88%
    02:00 +6°C° 0 mm 0 m/S 698 mmHg 92%
    03:00 +5°C° 0 mm 0 m/S 699 mmHg 95%
    04:00 +5°C° 0 mm 0 m/S 699 mmHg 94%
    05:00 +7°C° 0 mm 1 m/S 699 mmHg 94%
    06:00 +7°C° 0 mm 1 m/S 699 mmHg 93%
    07:00 +8°C° 0 mm 1 m/S 699 mmHg 88%
    08:00 +9°C° 0 mm 1 m/S 699 mmHg 82%
    09:00 +9°C° 0 mm 2 m/S 699 mmHg 76%
    10:00 +10°C° 0.1 mm 2 m/S 699 mmHg 73%
    11:00 +12°C° 0.1 mm 2 m/S 699 mmHg 69%
    12:00 +13°C° 0.1 mm 2 m/S 698 mmHg 66%
    13:00 +13°C° 0.1 mm 2 m/S 698 mmHg 63%
    14:00 +14°C° 0.1 mm 2 m/S 698 mmHg 60%
    15:00 +15°C° 0.1 mm 2 m/S 698 mmHg 57%
    16:00 +14°C° 0 mm 2 m/S 698 mmHg 61%
    17:00 +13°C° 0 mm 1 m/S 698 mmHg 65%
    18:00 +13°C° 0 mm 1 m/S 698 mmHg 69%
    19:00 +11°C° 0 mm 1 m/S 698 mmHg 72%
    20:00 +10°C° 0 mm 1 m/S 698 mmHg 75%
    21:00 +7°C° 0 mm 2 m/S 699 mmHg 79%
    22:00 +7°C° 0 mm 2 m/S 699 mmHg 79%
    23:00 +7°C° 0 mm 2 m/S 699 mmHg 79%

    26 April, Freitag

    Zeit Temperatur Niederschläge Wind Luftdruck Luftfeuchtigkeit
    00:00 +6°C° 0 mm 2 m/S 699 mmHg 79%
    01:00 +6°C° 0 mm 2 m/S 699 mmHg 79%
    02:00 +7°C° 0 mm 1 m/S 699 mmHg 80%
    03:00 +6°C° 0 mm 1 m/S 699 mmHg 80%
    04:00 +7°C° 0 mm 1 m/S 699 mmHg 80%
    05:00 +7°C° 0 mm 1 m/S 699 mmHg 79%
    06:00 +7°C° 0 mm 1 m/S 699 mmHg 79%
    07:00 +9°C° 0 mm 1 m/S 699 mmHg 73%
    08:00 +10°C° 0 mm 2 m/S 699 mmHg 67%
    09:00 +13°C° 0 mm 2 m/S 699 mmHg 60%
    10:00 +14°C° 0 mm 2 m/S 698 mmHg 58%
    11:00 +14°C° 0 mm 3 m/S 698 mmHg 55%
    12:00 +16°C° 0 mm 3 m/S 698 mmHg 53%
    13:00 +16°C° 0 mm 3 m/S 698 mmHg 53%
    14:00 +16°C° 0 mm 3 m/S 697 mmHg 53%
    15:00 +16°C° 0 mm 3 m/S 697 mmHg 54%
    16:00 +14°C° 0 mm 3 m/S 697 mmHg 58%
    17:00 +14°C° 0 mm 2 m/S 697 mmHg 62%
    18:00 +14°C° 0 mm 2 m/S 697 mmHg 67%
    19:00 +12°C° 0 mm 2 m/S 697 mmHg 71%
    20:00 +11°C° 0 mm 1 m/S 697 mmHg 74%
    21:00 +9°C° 0 mm 1 m/S 698 mmHg 78%
    22:00 +9°C° 0 mm 1 m/S 698 mmHg 79%
    23:00 +8°C° 0 mm 1 m/S 698 mmHg 81%

    27 April, Samstag

    Zeit Temperatur Niederschläge Wind Luftdruck Luftfeuchtigkeit
    00:00 +8°C° 0 mm 1 m/S 698 mmHg 82%
    01:00 +7°C° 0 mm 1 m/S 698 mmHg 83%
    02:00 +7°C° 0 mm 1 m/S 697 mmHg 84%
    03:00 +7°C° 0 mm 1 m/S 697 mmHg 86%
    04:00 +7°C° 0 mm 1 m/S 697 mmHg 85%
    05:00 +7°C° 0 mm 1 m/S 698 mmHg 84%
    06:00 +8°C° 0 mm 1 m/S 698 mmHg 83%
    07:00 +10°C° 0 mm 1 m/S 698 mmHg 76%
    08:00 +10°C° 0 mm 2 m/S 697 mmHg 69%
    09:00 +13°C° 0 mm 2 m/S 697 mmHg 62%
    10:00 +14°C° 0 mm 2 m/S 697 mmHg 60%
    11:00 +15°C° 0 mm 2 m/S 697 mmHg 59%
    12:00 +16°C° 0 mm 3 m/S 696 mmHg 57%
    13:00 +16°C° 0.1 mm 3 m/S 696 mmHg 56%
    14:00 +17°C° 0.1 mm 3 m/S 696 mmHg 56%
    15:00 +17°C° 0.1 mm 3 m/S 695 mmHg 56%
    16:00 +16°C° 0 mm 2 m/S 695 mmHg 60%
    17:00 +15°C° 0 mm 2 m/S 695 mmHg 65%
    18:00 +14°C° 0 mm 2 m/S 695 mmHg 69%
    19:00 +13°C° 0 mm 1 m/S 695 mmHg 74%
    20:00 +11°C° 0 mm 1 m/S 695 mmHg 79%
    21:00 +10°C° 0 mm 1 m/S 696 mmHg 83%
    22:00 +9°C° 0 mm 1 m/S 695 mmHg 85%
    23:00 +8°C° 0 mm 0 m/S 695 mmHg 86%
    Mehr zeigen